Погода в Минусинске

Погода в Минусинске : погода сейчас, прогноз погоды и архив. Всё, что Вы хотите узнать о погоде в Минусинске!

Поиск расширенной информации на нашем сайте:

Другие новости

Новости СМИ2

Главная страница сайта

Новости сайта

03.07.2017

Напоминаем, что на нашем специализированном сайте Метеоцентр.Азия вы можете получить высокодетализированные автоматические прогнозы погоды по пунктам России, СНГ и мира в авиационном формате (включающие направление и скорость ветра, видимость, явления погоды, количество и форму облачности, нижнюю и верхнюю границу облачности).


Погода в Минусинске - сегодня

Время (UTC), дата Ветер
(°,м/с) 
Видим.   Явления Облачность Т
(°С)
Тd
(°С)
f(%) Тe
(°С)
Pmin
(гПа)
dP
(гПа)
Po
(мм)
O2
(г/м3)
Тmin Tmax R s Состояние
почвы
18 19.02.18 тихо ()   н/о  дымка  10/0 средняя, верхняя 
[Ac trans|Ci fib]
-15.2 -17.2 85 -15  1038.2  0.1  753  323           
21 19.02.18 240 (ЮЗ) н/о  в посл. час ливневой снег  10/8 600 м кучево-дожд., верхняя 
[Cb cap|Ci fib]
-8 -12.1 72 -12  1037.2  -0.1  753  314           
00 20.02.18 230 (ЮЗ) н/о  в посл. час ливневой снег  10/10 600 м кучево-дожд. 
[Cb cap]
-7.9 -12.5 69 -12  1036.9  -0.3  753  313  -15.5    0.0  10  равномерный
сухой снег
100% 
03 20.02.18 240 (ЮЗ) 5{10}  20000 м    10/10 600 м кучево-дожд. 
[Cb cap]
-6.8 -12 66 -11  1036.6  -0.2  752  312           
12 20.02.18 250 (З) 5{10}  н/о    10/10 600 м кучево-дожд. 
[Cb cap]
-3.9 -9.7 64 -8  1033  -0.8  750  308    -3.4  0.0     
15 20.02.18 240 (ЮЗ) н/о    10/10 600 м кучево-дожд. 
[Cb cap]
-3.8 -9.5 65 -7  1032.6  -0.4  750  307           
18 20.02.18 210 (ЮЗ) н/о    10/10 600 м кучево-дожд. 
[Cb cap]
-4.1 -9.5 66 -6  1031.6  -0.9  749  307           
21 20.02.18 190 (Ю) н/о    10/10 600 м кучево-дожд. 
[Cb cap]
-5.1 -9.6 71 -5  1030.2  -1.5  748  308           
00 21.02.18 230 (ЮЗ) н/о  слаб. ливневой снег  10/10 600 м кучево-дожд. 
[Cb cap]
-6.3 -7.9 88 -6  1030  -0.3  748  309  -7.7    0.0  равномерный
сухой снег
100% 
03 21.02.18 тихо ()   1000 м  ливневой снег  10/10 600 м кучево-дожд. 
[Cb cap]
-5.6 -7.1 89 -6  1029  -0.8  747  308           
06 21.02.18 230 (ЮЗ) 4000 м  в посл. час снег{ливн. осадки}  10/8 1000 м верхняя 
[Cu Sc|Ci]
-3.3 -6.5 78 -4  1028.2  -0.6  747  305           
09 21.02.18 тихо ()   4000 м  слаб. ливневой снег  10/10 600 м кучево-дожд. 
[Cb cap]
-2.8 -5.8 80 -3  1026.8  -1.2  746  304           
12 21.02.18 030 (СВ) н/о  {ливн. осадки}  10/6 1000 м верхняя 
[Sc diur, vesp|Ci fib]
-6.1 -7.6 89 -9  1026.6  -0.7  745  308    -1.6     
15 21.02.18 040 (СВ) н/о    8/0 верхняя 
[Ci fib]
-11 -11.6 95 -11  1026.4  -0.8  745  314           
18 21.02.18 тихо ()   н/о    6/0 верхняя 
[Ci fib]
-16 -16.6 95 -16  1025  -2  743  320           
21 21.02.18 тихо ()   н/о    ясно 
-20 -20.6 95 -20  1024.3  -1.2  742  324           
00 22.02.18 тихо ()   н/о  туман  10/0 средняя 
[Ac As]
-19.2 -19.8 95 -19  1023.3  -0.8  742  323  -21.6      11  равномерный
сухой снег
100% 
03 22.02.18 120 (ЮВ) 2000 м  дымка{туман}  10/0 верхняя 
[Cs]
-13.8 -14.4 95 -14  1022.4  -0.3  742  316           
06 22.02.18 240 (ЮЗ) 4000 м  дымка{туман}  10/0 верхняя 
[Cs]
-6.1 -10.1 73 -6  1020.5  -0.8  741  306           
09 22.02.18 180 (Ю) 4000 м  слаб. снег  10/0 средняя 
[As op]
-5.8 -8.4 82 -5  1020.5  741  306           
12 22.02.18 110 (В) н/о  слаб. снег  10/0 средняя 
[As op]
-6.8 -8 91 -8  1020.7  741  307    -5.3     
15 22.02.18 020 (С) н/о  дымка{снег}  10/3 1000 м средняя 
[Sc|Ac As]
-7 -8.3 90 -7  1020.5  -0.2  741  307           
18 22.02.18 270 (З) н/о  дымка{снег}  4/0 верхняя 
[Ci fib]
-5 -8.2 78 -6  1020.4  0.2  741  305           
21 22.02.18 240 (ЮЗ) н/о  дымка  10/0 верхняя 
[Ci]
-6 -10.4 71 -9  1022.9  2.4  743  307           
00 23.02.18 280 (З) н/о  дымка  10/4 1000 м верхняя 
[Sc|Ci]
-7.2 -11.5 71 -11  1024.8  1.6  744  309  -11.4    0.0  11  равномерный
сухой снег
100% 
Время (UTC), дата Ветер
(°,м/с) 
Видим.   Явления Облачность Т
(°С)
Тd
(°С)
f(%) Тe
(°С)
Pmin
(гПа)
dP
(гПа)
Po
(мм)
O2
(г/м3)
Тmin Tmax R s Состояние
почвы

Для получения пояснительной информации подведите курсор к названию столбца.

ПОГОДА в Минусинске - архив

Всё, что Вы хотите узнать о погоде в Минусинске - удобно и подробно!

Выберите нужную дату (начиная с 1 января 2015* года) и нажмите кнопку "Найти".
Будут отображены архивные сводки погоды по пункту Минусинск, начиная с указанной даты.


Отображать данные в формате CSV (для использования в таблицах Excel)


Внимание! Наш архив погоды предназначен исключительно для личного некоммерческого использования в познавательных целях. Если Вам необходимы официальные справки о состоянии погоды (для производственных, юридических, коммерческих и т.п. целей), обращайтесь в органы Росгидромета.

*Примечание: данная дата относится к архиву по метеостанциям СССР (Россия, СНГ, Балтия).
Архив по метеостанциям Зарубежной Европы и Азии (кроме Китая) хранится 10 дней, по другим регионам земного шара (Китай, Африка, Америка, Австралия, Океания) - 1 день.

Минусинск - район местоположения метеостанции


Название, широта, долгота, высота метеостанции:
Минусинск 53.7°ш. 91.7°д. 254 м над ур. моря [Российская Федерация]

Дополнительная информация

В oтличие oт бoльшинства пoгoдных сайтoв мы публикуем пoдрoбную метеoинфoрмацию в детальнoм прoфессиoнальнoм фoрмате.

Характеристики температуры и влажнoсти вoздуха измеряются на высoте 2 м в тени вдали oт зданий и деревьев.
Скoрoсть ветра измеряется на высoте 10 м (на урoвне рoста челoвека скoрoсть ветра ниже в 1.5-2 раза). Если метеoстанция нахoдится в гoрoде или в лесу, тo скoрoсть ветра занижена на 2-4 м/с пo сравнению с oткрытым местoм. Скoрoсть ветра над акватoриями крупных рек и oзёр, а также на вершинах хoлмoв на 2-5 м/с выше, чем в oбычных услoвиях.
Атмoсфернoе давление в разных тoчках местнoсти мoжет значительнo oтличаться oт давления на метеoстанции, в зависимoсти oт услoвий рельефа (при пoдъёме на 10 м давление пoнижается примернo на 1 мм рт.ст.).